YAOGAN-30 B

导读

YAOGAN-30 B(遥感三十号01组B星)是中国于2017年9月29日发射的遥感卫星,属于遥感三十号系列组网卫星。该卫星由中国科学院微小卫星创新研究院研制,采用多星组网模式运行,主要任务是开展电磁环境探测及相关空间技术试验。它的成功发射进一步完善了我国遥感卫星组网体系,为空间科学研究积累了宝贵数据,推动了我国航天遥感技术的持续发展。

Basic Information
目录编号:
42946
目录名称:
YAOGAN-30 B
国际标识:
2017-058B
轨道中心:
EARTH
卫星名称:
YAOGAN-30 B
卫星全名:
--
卫星状态:
在轨 (已飞行3273 天)
发射日期:
2017-09-29 UTC
国别 :
中国 (CN)
星等 :
--
This satellite is enrolled in the Space Conjunction Data Service (SCDS) and the current flight risk assessment level is: No High Risk
Orbit Information
数据来源 国际轨道数据 AOE轨道数据
星历时间 2026-09-15T20:55:53+0800
9小时前
查看轨道信息
2026-09-15T21:00:00+0800
9小时前
查看轨道信息
半长轴 6935.216km 6935.219km
偏心率 0.0001735 0.0001688
轨道倾角 34.997° 34.996°
近地点辐角 356.525° 356.457°
升交点赤经 199.193° 199.177°
平近点角 3.545° 19.121°
近地点 555.875km 555.911km
远地点 558.283km 558.253km
周期 95.797分钟 95.797分钟
每日圈数 15.031864 15.031854
Detailed Information
使用方式:
暂无
2D Orbit Map
3D Orbit Map
Orbit Altitude Analysis Chart
Orbit Inclination Analysis Chart
Orbit Comprehensive Analysis Chart
View Comprehensive Chart
Miss Distance Evolution Trend with All Objects Subscribe to Flight Safety Assessment
Collision Probability Evolution Trend with All Objects Subscribe to Flight Safety Assessment